Theta_e
299 299 297 297 297 297 298 298 298 299 300 300 302 303 302 302 302 303 303 303 304 305 305 305 305 305 307 308 313 312 310 311 312 313 315 316 319 321 320 321 322 323 328 327 328 326 327 326 326 328 328 328 328 327
299 300 299 298 298 298 298 298 298 299 299 301 301 303 302 303 302 302 305 305 305 304 305 304 305 305 304 304 306 310 312 311 309 311 313 314 316 316 321 323 323 325 323 326 326 327 329 326 327 330 329 330 330 330
299 299 300 299 298 298 298 298 299 300 301 301 301 302 302 302 302 302 304 305 305 307 308 307 307 307 306 306 306 310 311 311 313 313 317 312 314 312 317 321 320 321 323 326 328 326 328 327 327 329 328 329 329 329
298 299 299 299 298 299 300 300 300 301 301 301 302 301 302 303 302 301 304 306 305 307 308 309 306 307 306 306 306 307 308 308 310 311 314 314 312 310 311 314 318 321 320 323 324 324 326 326 327 328 328 329 333 332
298 298 299 299 299 299 299 299 300 301 302 301 303 301 301 300 302 302 305 305 305 306 308 307 306 306 306 306 306 307 308 309 309 310 314 313 311 311 311 311 312 314 318 320 324 323 324 324 325 326 328 330 331 330
297 298 298 298 298 298 298 299 300 301 302 302 303 301 301 301 300 303 307 305 304 305 307 308 307 307 306 307 308 308 309 309 309 309 309 310 313 314 316 313 312 312 314 317 319 325 326 326 328 327 327 329 330 330
297 297 298 298 298 298 299 300 301 302 302 302 302 301 301 301 302 304 306 304 302 305 306 308 309 308 307 308 308 309 309 309 309 309 308 309 310 312 313 315 314 313 312 315 319 321 323 322 324 324 325 325 326 329
297 297 297 298 298 298 299 300 302 302 301 301 301 301 301 301 302 303 305 303 303 305 307 308 309 307 308 310 309 307 309 309 308 309 309 309 308 311 313 311 311 313 314 313 314 319 320 319 322 324 325 325 327 329
295 296 297 298 298 299 300 301 302 301 301 301 301 301 304 304 305 306 302 302 305 305 308 308 309 312 308 308 310 310 309 310 309 309 309 309 310 310 310 310 310 312 314 314 315 318 318 318 317 321 323 323 323 325
293 294 296 298 298 299 300 301 301 301 302 304 305 306 307 306 303 303 306 306 305 305 305 308 308 311 306 306 311 311 310 310 312 309 309 310 311 310 310 310 310 312 312 314 315 315 317 317 316 316 319 321 323 323
292 293 296 298 299 299 300 301 302 303 304 304 305 307 305 304 306 307 308 307 308 307 307 309 309 311 307 309 309 307 312 311 312 312 311 311 311 312 310 311 311 311 313 313 315 315 316 317 318 318 317 318 322 323
292 293 295 298 299 300 301 302 301 304 304 303 302 303 305 308 308 308 309 308 309 309 308 310 310 311 309 304 305 307 311 311 313 314 314 312 311 312 312 311 311 312 312 313 315 316 317 317 317 320 323 325 323 324
292 293 296 298 300 300 301 302 302 302 304 306 307 309 308 308 311 308 308 308 310 309 309 309 310 310 310 305 305 305 309 313 308 315 316 316 317 317 317 315 314 313 314 315 316 317 318 318 318 319 321 323 325 327
292 293 297 299 300 300 301 302 302 305 307 308 308 309 309 308 309 309 310 310 309 309 310 309 311 311 311 312 310 311 310 307 314 318 318 315 312 314 314 315 317 316 316 317 318 320 320 320 320 321 321 323 325 327
292 294 299 301 299 300 302 302 304 307 307 308 308 311 310 309 309 309 310 310 310 309 311 312 311 311 312 312 310 310 312 314 312 311 309 306 310 308 311 313 314 311 312 315 318 321 321 322 322 325 328 329 331 331
292 300 302 300 299 300 303 304 308 307 307 307 307 309 308 309 309 308 309 309 309 309 310 311 311 311 311 310 312 312 312 310 308 303 309 307 309 307 308 309 309 308 309 311 312 318 322 323 326 327 326 327 327 326
294 303 299 298 300 302 305 307 307 306 307 307 309 308 307 307 307 307 307 308 308 309 310 310 312 313 310 312 312 307 306 304 302 310 313 312 312 311 309 308 307 307 307 308 311 313 317 319 320 322 323 323 323 324
296 296 297 299 300 305 307 306 307 306 306 307 308 308 308 308 306 307 307 308 308 308 308 310 310 309 311 312 311 305 302 308 310 311 313 313 312 311 311 311 310 310 309 309 310 311 313 316 317 318 319 319 319 321
293 295 297 299 301 305 308 307 307 308 307 307 306 307 307 308 307 306 307 307 308 307 308 309 310 312 312 310 310 310 309 310 309 312 312 312 313 312 312 310 310 310 310 311 311 311 311 311 314 315 316 316 318 317
294 298 301 299 304 308 307 307 307 308 308 307 307 306 307 307 308 307 307 307 307 308 308 308 309 309 309 309 308 309 309 311 312 312 313 312 311 311 312 312 311 311 311 310 310 310 311 311 311 312 313 314 315 315
299 303 301 305 307 307 307 306 307 307 307 307 306 306 306 306 306 307 306 307 307 307 308 308 309 309 309 309 308 309 309 308 307 307 308 311 309 309 310 309 310 311 312 311 312 311 310 311 310 310 311 312 312 311
301 300 303 306 306 306 307 306 306 306 307 307 306 306 307 308 307 306 307 307 307 307 307 308 308 308 308 308 309 309 309 308 308 307 307 308 308 308 309 309 310 310 311 312 311 311 311 310 310 311 312 311 311 312
299 302 305 305 305 306 304 305 307 306 306 306 307 306 306 306 306 306 307 307 306 306 306 307 307 307 308 308 307 307 308 309 309 309 308 308 307 307 307 308 309 310 311 310 311 310 310 310 310 311 311 311 312 312
301 303 305 305 306 305 304 305 306 306 306 306 306 305 305 306 306 306 306 306 305 305 305 306 307 307 307 308 308 307 307 307 307 307 307 308 308 307 306 306 307 307 308 308 309 309 310 310 310 310 310 311 311 311
301 302 303 301 305 304 304 303 304 305 303 304 305 305 306 306 306 305 305 305 305 305 305 305 307 307 308 308 308 307 307 306 307 308 307 307 307 307 307 306 306 306 307 308 308 308 308 308 309 310 311 311 312 311
302 302 303 305 304 304 303 302 302 303 303 302 303 305 305 305 305 304 305 304 304 303 304 305 306 307 306 306 307 307 307 306 307 307 307 307 307 307 308 308 308 307 306 307 307 307 307 308 308 309 310 311 310 311
302 302 304 304 305 304 304 303 303 302 302 301 303 303 303 302 302 303 304 303 302 301 301 302 303 303 305 305 304 304 305 306 306 306 306 305 305 305 306 306 306 305 306 305 307 307 307 307 307 308 308 308 309 309
301 301 303 306 304 304 303 302 302 302 302 302 302 302 301 302 303 303 303 301 300 299 299 300 300 302 303 303 303 303 303 304 305 305 305 304 303 303 303 303 302 302 303 302 303 306 307 306 306 307 307 307 307 307
301 302 302 303 303 303 303 301 301 301 302 302 303 302 301 301 300 300 299 298 298 298 299 299 299 299 302 302 302 302 301 302 303 306 306 306 305 302 300 301 301 302 303 303 301 302 303 305 305 305 306 306 306 306
300 301 302 303 302 301 301 301 301 301 301 301 301 300 300 300 299 298 298 298 298 299 298 298 298 299 302 302 302 302 300 299 298 299 301 301 300 298 298 298 299 299 300 300 301 301 300 303 303 302 301 300 299 302
299 301 302 302 301 300 300 300 300 300 300 300 300 300 299 300 299 298 298 298 298 298 297 298 298 299 301 301 300 300 299 297 296 295 293 296 296 296 296 296 297 297 298 298 298 298 299 299 298 297 297 297 296 296
299 301 301 300 301 301 300 300 300 300 300 300 300 300 300 300 299 300 299 299 298 297 297 298 298 299 299 298 298 297 296 296 294 293 291 292 294 294 294 295 295 296 296 297 297 296 296 296 296 296 295 294 294 293
300 300 300 300 300 300 300 300 301 301 301 303 300 299 299 299 299 299 298 297 297 298 298 297 296 295 294 294 294 294 293 292 287 286 285 286 287 289 291 293 293 294 295 295 295 294 294 293 293 292 291 291 290 290
Wind_Speed
32 31 30 28 27 27 26 27 28 30 29 27 27 20 14 8 3 6 7 7 6 3 12 12 3 4 8 4 5 8 11 13 10 12 8 4 6 13 16 22 26 19 19 15 17 15 18 20 14 22 11 2 13 17
30 29 29 29 27 25 26 28 29 28 29 26 24 18 13 7 3 3 6 4 8 5 8 21 19 12 15 11 5 6 4 3 5 8 8 6 7 4 8 8 16 21 20 15 17 14 5 15 15 15 11 9 7 11
30 29 27 27 27 27 28 28 28 28 28 26 19 16 11 10 10 10 13 11 8 6 9 9 3 13 14 17 11 3 3 6 8 6 8 5 6 5 6 6 11 13 15 15 14 14 13 8 10 14 12 11 10 9
29 29 28 27 27 27 28 29 32 30 27 25 21 15 12 12 13 14 12 8 9 5 4 4 3 2 0 3 5 6 7 8 6 8 6 8 5 8 12 10 10 11 10 9 14 7 15 12 14 7 15 11 8 7
29 28 29 28 28 29 30 31 31 31 28 24 21 16 14 14 15 16 15 6 6 5 4 7 14 2 5 7 9 8 6 7 8 7 6 7 8 8 10 15 12 12 13 10 8 8 6 7 9 6 5 9 8 9
29 30 30 30 31 32 31 31 32 31 29 26 22 18 14 13 13 11 2 5 9 9 4 4 6 6 4 6 9 10 7 6 7 9 7 4 13 3 5 14 22 20 20 20 14 9 3 10 7 7 5 9 7 13
30 31 32 31 32 33 30 32 35 32 30 28 25 19 13 12 10 5 5 11 13 12 3 4 5 4 11 5 5 8 7 7 7 8 9 9 9 4 6 12 17 22 24 20 15 4 6 10 8 5 7 10 9 10
32 34 33 32 32 33 29 35 37 33 32 28 20 12 9 9 10 7 5 7 15 8 3 3 5 2 5 3 3 3 5 6 6 9 9 10 10 9 8 16 22 22 19 24 23 12 11 13 8 11 9 9 10 9
34 35 34 33 32 30 31 37 36 36 29 17 10 4 2 4 2 1 13 10 6 6 3 2 2 3 6 4 4 3 3 3 5 7 11 7 10 9 13 15 15 21 17 18 13 17 12 14 17 14 16 13 13 14
36 36 36 34 30 28 35 38 36 29 17 12 7 5 1 3 13 8 2 2 2 2 3 5 1 3 0 1 3 2 3 4 3 6 9 8 15 20 21 17 16 16 17 19 18 15 15 20 19 20 19 16 16 15
36 37 37 33 24 32 36 38 31 21 10 8 5 3 12 11 3 2 3 2 3 3 3 4 4 7 4 4 2 2 2 3 3 5 7 6 12 19 23 22 19 16 17 16 10 13 17 17 17 17 20 20 19 20
37 37 37 27 24 34 37 36 24 15 11 8 8 7 6 3 2 4 5 3 2 3 5 6 11 9 0 2 2 2 3 3 5 5 3 6 8 5 18 21 20 18 17 17 17 17 19 22 20 15 13 17 19 22
38 38 35 17 30 37 37 29 20 14 8 3 4 3 4 3 5 6 7 5 7 8 9 12 10 5 3 4 3 2 4 4 4 3 4 3 8 9 8 5 11 14 16 17 18 17 18 22 21 20 19 19 24 18
39 38 28 18 32 35 35 23 18 10 5 3 4 4 4 4 3 3 9 10 8 9 13 11 10 3 3 3 2 3 2 2 3 3 2 6 10 8 9 8 9 13 17 13 16 19 20 21 18 19 24 26 25 17
40 36 12 21 35 35 28 19 11 7 5 4 4 4 5 6 7 5 5 6 6 6 9 7 5 3 3 4 3 3 5 4 5 4 3 6 8 7 8 6 10 13 13 7 8 12 15 12 13 13 7 7 5 6
40 18 12 32 33 34 20 15 6 4 2 3 4 6 9 10 11 11 10 10 11 11 9 3 5 4 4 6 4 5 9 5 5 4 2 3 7 10 10 13 15 14 14 12 11 5 11 11 11 12 18 17 14 14
30 9 31 33 32 26 12 6 4 2 3 4 4 6 8 9 9 8 9 9 8 8 10 5 6 6 5 5 6 4 6 6 7 8 7 7 7 6 8 11 12 10 11 12 8 9 7 12 18 15 16 17 18 19
19 28 31 26 28 19 6 3 3 3 2 3 3 6 8 7 8 9 8 7 8 9 7 3 2 6 5 7 5 3 3 7 8 10 10 12 12 11 9 9 7 7 8 8 12 12 12 9 14 11 15 17 16 16
32 31 26 18 15 7 3 2 2 3 3 5 5 6 5 7 7 8 9 9 8 7 5 5 5 3 3 3 9 9 5 4 4 8 9 8 9 11 12 13 14 11 9 7 9 6 11 15 12 16 17 15 8 11
26 22 13 19 6 4 3 2 2 3 3 4 6 5 5 5 7 6 7 7 7 6 5 4 5 6 6 4 5 5 4 5 4 6 8 7 8 12 10 8 8 11 13 15 13 13 12 12 15 16 17 12 9 9
19 8 19 8 4 4 4 3 3 1 4 4 6 6 5 5 5 4 5 4 5 4 5 6 7 5 6 6 4 7 7 7 7 8 10 8 9 11 10 15 14 12 8 9 9 10 14 10 15 16 12 9 10 11
9 18 9 5 4 3 4 4 4 5 3 6 5 5 4 4 4 5 5 3 3 3 5 6 5 6 4 7 6 10 8 12 12 8 7 10 10 10 10 11 9 10 9 8 12 11 15 16 16 16 14 15 13 11
13 4 6 4 3 2 5 2 4 2 3 4 5 5 4 2 4 5 2 2 1 4 6 6 8 12 8 7 5 8 8 8 8 7 9 11 13 16 15 16 17 9 8 15 16 14 13 12 15 14 15 15 13 12
5 4 4 3 6 3 2 3 3 3 3 3 3 5 5 3 4 4 3 3 2 4 5 7 7 5 5 6 6 6 9 4 1 8 10 16 8 8 15 16 16 17 16 15 14 14 15 13 13 13 14 13 12 14
4 5 4 5 4 4 4 3 4 3 4 3 5 7 4 2 3 5 3 2 3 4 4 6 6 7 5 4 5 10 11 11 5 6 10 8 6 10 9 12 15 16 17 17 16 15 14 13 12 13 16 14 14 10
6 5 7 7 4 5 5 3 5 6 5 4 4 4 2 3 4 4 3 1 3 4 4 4 5 6 5 6 5 5 10 12 11 4 6 8 9 7 6 6 6 11 14 14 12 13 13 14 14 13 12 11 13 12
6 7 6 5 4 4 4 4 3 3 4 4 4 3 3 4 5 1 2 4 2 6 7 5 3 4 7 9 8 8 8 6 7 6 5 6 7 8 8 8 7 9 11 11 10 10 10 11 12 12 12 13 14 14
8 6 14 9 8 6 7 5 5 4 5 4 2 4 4 5 4 1 1 4 7 9 11 11 10 6 7 6 7 7 7 6 6 5 4 2 6 7 7 6 7 9 6 10 10 8 10 10 10 9 10 11 12 14
6 5 9 11 10 6 6 7 6 5 5 5 7 8 10 8 7 6 11 13 12 10 11 11 12 7 6 7 3 3 6 7 8 6 8 3 3 7 7 7 7 7 7 6 8 11 9 9 9 10 10 13 13 13
7 9 7 9 10 8 7 8 7 6 6 6 6 7 8 8 12 13 13 14 12 11 13 15 16 9 6 8 5 0 5 9 10 9 4 2 6 6 7 7 7 7 7 6 6 6 9 7 9 10 11 12 11 12
4 9 12 9 10 9 10 7 7 7 7 7 8 8 10 10 13 15 13 13 8 9 13 15 13 7 1 3 1 2 2 4 5 8 9 8 7 7 7 7 6 6 5 5 6 7 6 8 9 11 11 12 12 12
6 9 11 10 9 8 8 7 6 8 10 11 11 10 9 10 11 10 2 5 7 7 9 9 6 6 6 6 3 1 1 2 2 3 5 5 5 6 6 5 5 5 4 5 7 8 9 9 9 9 10 11 12 13
8 8 7 8 5 4 6 8 7 11 10 8 11 12 12 11 14 2 4 6 6 7 5 4 6 6 5 4 3 4 3 3 4 6 9 9 7 5 4 4 4 4 5 6 7 8 9 10 11 11 12 12 12 12
Wind_Direction
356 357 355 354 354 353 356 356 356 358 0 356 357 350 343 343 307 225 274 260 244 270 284 277 209 223 289 257 300 334 179 215 227 215 182 205 275 234 256 209 192 199 204 207 212 201 221 198 198 182 215 262 178 198
355 355 355 356 357 357 356 355 355 357 357 357 356 4 1 8 16 299 297 283 246 242 280 291 280 220 239 240 268 318 300 316 269 238 192 158 235 310 351 282 219 208 212 210 214 206 185 211 200 169 188 171 155 172
350 353 351 353 354 354 354 356 356 355 353 354 351 360 359 337 339 316 299 301 283 277 275 237 283 161 210 229 244 290 326 345 309 335 321 249 200 233 239 249 352 285 231 214 213 203 158 177 193 171 209 213 194 203
350 353 355 352 352 352 352 354 354 353 352 351 344 336 324 323 319 329 307 307 303 295 280 344 271 200 47 242 239 266 298 286 301 300 299 285 269 195 260 264 275 248 339 252 196 230 161 175 192 190 202 193 100 236
347 348 350 349 346 344 342 343 345 347 347 342 336 324 317 311 307 315 296 297 347 319 312 302 302 315 292 242 255 274 271 269 268 251 248 267 266 283 241 251 252 252 261 262 207 185 224 185 195 214 278 215 174 231
343 344 344 344 342 342 342 344 343 342 337 333 327 316 303 307 315 318 286 232 349 1 294 304 327 289 240 254 268 264 254 237 252 269 275 220 270 276 261 245 239 247 257 264 288 59 333 307 336 336 303 299 186 233
344 343 342 342 341 341 341 344 342 338 335 328 323 311 297 291 295 275 301 320 327 322 271 293 311 354 327 317 293 280 250 251 246 256 255 259 248 207 251 266 266 236 239 252 259 303 263 259 259 255 283 261 258 227
345 344 343 343 341 340 342 342 340 337 331 327 323 312 293 287 282 279 273 273 314 259 249 269 281 322 300 250 254 235 264 258 241 243 246 235 246 216 240 245 253 268 259 236 245 218 252 277 310 293 278 285 295 271
347 346 345 344 342 342 344 343 342 336 336 339 338 338 272 251 241 27 315 303 252 275 296 255 282 313 328 341 291 201 238 253 259 240 242 245 242 241 231 240 256 248 250 260 257 215 205 248 253 254 269 260 256 263
345 345 345 344 343 344 343 345 342 344 351 352 328 215 205 32 317 321 262 211 223 248 229 269 262 264 254 281 280 249 212 237 243 243 226 236 240 240 243 247 232 230 244 233 228 247 234 231 240 246 244 257 271 267
342 343 343 342 344 344 345 346 343 353 355 359 2 314 336 323 278 251 279 258 207 256 234 288 319 303 176 233 255 237 249 265 249 240 195 231 231 227 226 236 234 217 226 244 237 240 247 250 240 244 246 246 249 247
341 342 342 340 344 345 346 344 347 351 344 310 303 286 287 271 313 311 319 310 270 299 310 316 327 327 108 143 238 225 257 243 250 340 240 246 264 307 196 210 222 231 232 234 229 233 233 240 243 250 261 261 243 241
340 341 341 338 344 344 342 344 346 333 321 255 237 268 360 345 4 1 345 323 330 326 321 330 317 304 197 178 207 224 236 239 339 252 256 19 19 0 329 281 218 220 228 234 233 246 235 229 225 228 236 241 249 242
338 340 338 337 340 339 344 344 347 353 291 342 325 11 18 338 339 302 294 281 299 293 303 297 301 264 249 234 215 244 272 270 259 245 347 9 16 356 345 326 294 256 238 232 230 229 224 222 217 222 228 224 226 229
337 338 332 336 335 342 342 342 348 336 325 346 344 345 6 324 328 301 275 353 321 277 298 306 325 9 333 324 3 311 327 10 356 316 324 2 16 16 339 349 62 47 31 5 326 250 213 189 186 193 175 137 95 77
337 336 342 330 337 341 341 347 350 314 334 326 14 337 351 359 6 7 9 23 359 346 352 2 2 353 345 334 338 16 331 349 316 284 253 151 59 44 39 37 48 33 20 7 345 341 121 124 126 111 85 96 121 108
339 307 325 330 334 340 341 337 321 318 327 343 338 324 15 358 15 360 13 1 2 354 11 15 21 351 316 335 357 13 335 304 296 343 357 83 92 75 85 88 85 61 23 348 2 12 52 86 112 110 103 98 91 82
314 316 316 328 337 331 308 334 312 285 295 327 338 337 352 334 353 360 20 3 349 2 5 52 64 4 356 334 353 338 291 342 346 347 12 30 98 97 102 89 77 106 97 27 1 31 27 62 85 80 74 69 72 68
313 316 316 324 329 312 296 316 342 299 285 309 348 328 334 338 341 4 15 14 357 3 14 22 52 15 335 335 346 6 341 6 341 349 3 33 49 56 76 85 99 83 71 86 73 64 42 42 55 62 59 68 55 43
319 321 305 324 318 277 274 262 238 261 274 299 285 320 317 308 325 344 14 21 3 31 22 43 24 16 9 66 360 335 306 346 337 32 358 7 56 64 65 68 53 58 79 64 60 77 80 66 57 75 72 53 40 44
320 284 319 324 246 251 276 295 283 251 295 279 301 308 323 313 318 340 5 11 34 27 24 26 21 1 348 84 101 326 340 5 54 25 16 15 27 55 40 47 59 53 52 62 60 62 70 77 78 74 81 93 111 105
289 314 296 269 261 236 253 225 280 305 267 275 294 306 295 286 283 335 332 349 28 42 29 24 345 22 351 34 16 33 8 3 5 35 27 38 35 31 27 43 36 38 48 51 55 54 58 52 70 72 85 92 79 63
311 284 242 240 246 235 262 238 254 246 279 305 327 302 276 269 293 341 323 323 96 30 7 13 351 355 2 15 26 36 27 33 350 40 11 42 41 41 41 29 34 34 35 26 32 52 62 41 43 64 78 77 79 86
286 257 254 237 211 241 237 222 229 236 274 277 279 281 293 276 312 280 237 235 37 56 17 350 338 14 324 32 16 6 20 61 284 22 18 38 359 58 58 42 33 27 32 34 35 34 24 27 21 40 44 49 69 72
258 252 207 250 237 212 221 213 215 231 253 268 269 272 274 344 270 280 265 276 25 38 16 356 355 342 7 12 1 2 21 340 34 48 354 2 30 75 23 75 60 30 19 35 24 32 36 31 29 39 43 27 9 28
239 229 200 209 217 205 201 213 204 228 252 266 265 257 315 268 247 249 219 245 38 15 32 342 337 335 352 354 2 359 1 348 341 60 27 19 19 29 14 26 32 48 28 14 28 23 38 33 34 43 50 44 29 18
240 236 216 243 229 201 217 229 279 253 245 249 246 260 263 250 254 236 77 71 354 344 337 320 344 333 324 329 351 343 326 1 12 18 32 47 53 44 39 36 38 16 18 19 14 20 22 53 40 38 50 49 39 29
231 246 218 204 216 213 234 217 217 227 225 228 213 229 231 216 242 93 204 246 316 319 309 303 295 292 308 328 320 318 317 289 243 261 242 93 65 57 47 50 42 37 44 39 25 24 9 26 45 47 41 44 44 36
228 228 222 199 209 189 223 211 226 222 224 226 217 235 257 272 292 313 315 309 297 286 290 294 292 278 267 264 261 323 357 344 327 294 267 253 167 63 25 22 26 24 16 26 32 43 43 43 36 21 25 31 24 43
232 204 202 194 206 215 218 208 232 239 239 239 262 275 275 271 271 281 287 288 289 299 308 299 292 278 267 264 250 153 13 10 12 1 25 5 18 12 9 4 4 7 7 8 3 22 32 38 43 39 41 43 38 42
214 198 212 212 226 234 239 239 215 229 245 257 266 263 255 261 264 263 276 282 285 303 299 290 280 298 101 120 70 51 101 69 27 17 10 348 355 359 357 352 354 2 11 21 27 26 35 54 56 52 47 46 43 45
212 216 217 225 240 256 272 253 240 249 252 252 249 249 258 262 271 272 264 296 284 294 292 291 323 80 100 113 141 133 190 115 60 29 11 357 352 353 349 350 354 2 27 47 54 55 59 65 66 67 62 54 48 44
224 219 214 247 248 267 252 246 259 266 267 266 270 272 271 270 278 103 98 37 25 14 32 60 87 101 106 105 107 102 91 91 92 76 61 59 63 61 36 23 28 38 60 66 72 72 71 74 73 70 67 64 59 53